STARLINK-35241 (65515 NORAD) Tracking and Keplerian Element Data

This shows tracking and keplerian element data for the satellite.

Feedback or suggestion? Click here.




ElementValue
Catalog65515
NameSTARLINK-35241
Epoch Orbit1639
Epoch Day354.11013157
Epoch Year2025
RAAN283.6495
Inclination53.16
Eccentricity0.0001021
Argument of Perigee91.6842
Mean Anonmoly268.428
Mean Motion15.39612067
Decay Rate0.00024263
L11 65515U 25198Z 25354.11013157 .00024263 00000+0 61479-3 0 9991
L22 65515 53.1600 283.6495 0001021 91.6842 268.4280 15.39612067 16399



Live tracking and technical data element details for STARLINK-35241 (NORAD 65515). STARLINK-35241 can be tracked NOW for your location showing map with azimuth and elevation plus other details from your city location.







IsCatalogInMostPopularTable: catalog: 65515, numindb: 3
Update: records affected: 1



GetName: 65515 STARLINK-35241

Hit Count: updated at: Tue, 10 Feb 2026 02:11:10 GMT